Content
SEND FEEDBACK

Daily
Averages
Monthly
Summary
United States of America

ASATDAS, GUAM


Home > North America > United States > Guam
Elevation: 612 feet     Latitude: 13 35N     Longitude: 144 56E

WEATHER
 
SELECT A DAY
Number of Records: 209,165;   Date Range: 1/1/95 - 8/30/14
 
SHARE

PRINT THIS DATA

[ ← Previous Day ]
WEATHER ALMANAC - FEBRUARY 14, 2013
[ Next Day → ]
[ °C ]   °F
Weather ElementAverageHighLow
Temperature77.9 °F83.1 °F (11:54 am)73.9 °F (5:54 am)
Dewpoint72.1 °F73.4 °F (2:37 pm)70 °F (4:54 am)
Humidity82.7 %91 % (8:54 pm)69 % (11:54 am)
Barometer29.85 in29.90 in (8:54 am)29.80 in (3:54 pm)
Wind Speed15.7 mph23 mph (2:54 pm)
Wind Gust29.9 mph (10:54 am)
Weather ElementAverage
Visibility9.8 mi
Wind DirectionENE (61.6 °)

Weather ElementTotal
Precipitation---
Cooling Degree Days13.5 (Base 65)
Growing Degree Days28.5 (Base 50)
Averaged from 25 records on February 14, 2013
WEATHER CONDITIONS BREAKOUT
WIND DIRECTION BREAKOUT
WEATHER BY HOUR - FEBRUARY 14, 2013
[ °C ]   °F
Local TimeTemperatureDewpointHumidityBarometerVisibilityWind DirectionWind SpeedGust SpeedPrecipitationEventsConditions
1:54 AM75.0 °F71.1 °F87 %29.88 in10.0 miENE (70°)15.0 mphPartly Cloudy
2:54 AM75.0 °F71.1 °F87 %29.87 in10.0 miEast (80°)16.1 mph21.9 mphScattered Clouds
3:54 AM75.0 °F71.1 °F87 %29.86 in10.0 miENE (70°)12.7 mphPartly Cloudy
4:54 AM75.0 °F70.0 °F84 %29.86 in10.0 miENE (70°)11.5 mphClear
5:54 AM73.9 °F70.0 °F87 %29.87 in10.0 miENE (60°)11.5 mphClear
6:54 AM73.9 °F70.0 °F87 %29.88 in10.0 miENE (60°)10.4 mphClear
7:54 AM75.0 °F72.0 °F90 %29.89 in10.0 miNE (50°)11.5 mphPartly Cloudy
8:54 AM77.0 °F73.0 °F88 %29.90 in4.0 miNE (50°)17.3 mphPartly Cloudy
9:54 AM81.7 °F73.2 °F75 %29.90 in10.0 miENE (60°)18.4 mphScattered Clouds
10:54 AM82.6 °F73.2 °F73 %29.89 in10.0 miENE (70°)20.7 mph29.9 mphPartly Cloudy
11:54 AM83.1 °F72.1 °F69 %29.87 in10.0 miENE (60°)18.4 mph29.9 mphClear
12:54 PM80.1 °F71.1 °F74 %29.85 in10.0 miENE (60°)19.6 mph27.6 mphScattered Clouds
1:54 PM80.1 °F71.1 °F74 %29.82 in10.0 miENE (60°)18.4 mph27.6 mphPartly Cloudy
2:37 PM80.6 °F73.4 °F79 %29.83 in10.0 miENE (60°)18.4 mph26.5 mphMostly Cloudy
2:54 PM80.1 °F72.0 °F76 %29.81 in10.0 miNE (50°)23.0 mph28.8 mphMostly Cloudy
3:09 PM80.6 °F71.6 °F74 %29.82 in10.0 miENE (60°)19.6 mph29.9 mphMostly Cloudy
3:54 PM80.1 °F73.0 °F79 %29.80 in10.0 miENE (60°)19.6 mph28.8 mphPartly Cloudy
4:54 PM79.0 °F73.0 °F82 %29.81 in10.0 miENE (60°)18.4 mphPartly Cloudy
5:54 PM78.1 °F73.0 °F84 %29.81 in10.0 miENE (60°)13.8 mph25.3 mph0.00 inScattered Clouds
6:54 PM77.0 °F73.0 °F88 %29.82 in10.0 miENE (60°)16.1 mphPartly Cloudy
7:54 PM77.0 °F73.0 °F88 %29.83 in10.0 miENE (60°)11.5 mphPartly Cloudy
8:54 PM75.9 °F73.0 °F91 %29.84 in10.0 miENE (60°)12.7 mphPartly Cloudy
9:54 PM77.0 °F73.0 °F88 %29.85 in10.0 miENE (70°)11.5 mphScattered Clouds
10:54 PM77.0 °F73.0 °F88 %29.86 in10.0 miENE (60°)13.8 mphMostly Cloudy
11:54 PM77.0 °F73.0 °F88 %29.85 in10.0 miENE (60°)11.5 mphPartly Cloudy
Hourly data recorded from PGUM, located miles away from Asatdas, Guam







STORIES FROM OUR PARTNERS